Location: Newark
(55.7108°N, 37.6306°E)
Time: 18:20:55
(UTC+00:00)

Envisat - Visible Passes

Search period start: 23 October 2019 00:00
Search period end: 02 November 2019 00:00
Orbit: 764 x 766 km, 98.1° (Epoch: 23 October)

Date Brightness Start Highest point End Pass type
(mag) Time Alt. Az. Time Alt. Az. Time Alt. Az.
23 Oct 6.6 02:43:57 10° ENE 02:44:58 11° E 02:45:58 10° E visible
23 Oct 3.7 15:42:22 10° S 15:47:22 57° W 15:52:24 10° NNW visible
23 Oct 6.3 17:26:16 10° W 17:27:33 11° W 17:28:50 10° WNW visible
24 Oct 3.0 15:05:27 10° SSE 15:10:32 80° ENE 15:15:39 10° NNW visible
24 Oct 5.6 16:46:25 10° SW 16:50:11 21° W 16:53:59 10° NW visible
25 Oct 6.1 03:07:40 10° NE 03:10:55 17° E 03:14:09 10° SE visible
25 Oct 4.6 16:08:20 10° SSW 16:13:02 37° W 16:17:46 10° NNW visible
26 Oct 3.4 15:31:00 10° S 15:36:04 68° WSW 15:41:10 10° NNW visible
26 Oct 6.1 17:13:40 10° WSW 17:16:05 13° W 17:18:31 10° NW visible
27 Oct 5.6 03:32:32 10° NE 03:36:46 25° E 03:40:57 10° SSE visible
27 Oct 3.0 14:54:15 10° SSE 14:59:17 67° ENE 15:04:21 10° NNW visible
27 Oct 5.3 16:34:40 10° SW 16:38:47 24° W 16:42:56 10° NW visible
28 Oct 6.2 02:56:51 10° NE 02:59:28 14° E 03:02:05 10° ESE visible
28 Oct 4.2 15:56:50 10° S 16:01:41 44° W 16:06:34 10° NNW visible
29 Oct 3.1 15:19:41 10° SSE 15:24:46 81° WSW 15:29:54 10° NNW visible
29 Oct 5.9 17:01:31 10° WSW 17:04:38 16° W 17:07:45 10° NW visible
30 Oct 5.9 03:21:29 10° NE 03:25:21 21° E 03:29:14 10° SE visible
30 Oct 3.1 14:43:04 10° SE 14:48:03 57° ENE 14:53:02 10° N visible
30 Oct 5.0 16:23:00 10° SSW 16:27:24 29° W 16:31:50 10° NNW visible
31 Oct 6.4 02:46:22 10° ENE 02:48:01 11° E 02:49:40 10° E visible
31 Oct 3.8 15:45:23 10° S 15:50:21 53° W 15:55:22 10° NNW visible
01 Nov 5.1 03:46:34 10° NNE 03:51:09 32° E 03:55:42 10° SSE visible
01 Nov 3.0 15:08:24 10° SSE 15:13:29 85° ENE 15:18:37 10° NNW visible
01 Nov 5.6 16:49:36 10° SW 16:53:12 19° W 16:56:50 10° NW visible
